Simultaneous Nadir Overpasses (SNOs) Predictions

Prediction of SNOs between METOP-B and NOAA-19 Satellite Orbit:

Table of predicted SNOs for the next 14.0 days since TLE Epoch: 9/15/2017
Index Date (METOP-B) Time (METOP-B) Lat,Lon (METOP-B) SZA (METOP-B ) Date (NOAA-19) Time (NOAA-19) Lat,Lon (NOAA-19) SZA (NOAA-19 ) Distance(km) Time Diff (sec)
1 09/19/2017 12:24:46 77.98, 2.02 76.80 09/19/2017 12:23:42 77.96, -2.15 76.66 96.71 64
2 09/19/2017 13:15:38 -77.56, 167.31 103.67 09/19/2017 13:14:37 -77.55, 167.26 103.69 1.68 61
3 09/19/2017 14:06:18 77.55, -25.42 76.34 09/19/2017 14:05:33 77.55, -25.46 76.33 0.98 45
4 09/19/2017 14:57:00 -77.54, 141.89 103.66 09/19/2017 14:56:38 -77.53, 141.86 103.68 1.81 22
5 09/19/2017 15:47:40 77.53, -50.84 76.34 09/19/2017 15:47:34 77.53, -50.87 76.34 0.80 6
6 09/19/2017 16:38:22 -77.53, 116.48 103.65 09/19/2017 16:38:39 -77.51, 116.45 103.67 2.01 17
7 09/19/2017 17:29:02 77.51, -76.25 76.35 09/19/2017 17:29:35 77.51, -76.28 76.35 0.74 33
8 09/19/2017 18:19:44 -77.51, 91.06 103.64 09/19/2017 18:20:40 -77.49, 91.04 103.65 2.25 56
9 09/19/2017 19:10:24 77.50,-101.67 76.36 09/19/2017 19:11:36 77.49,-101.69 76.36 0.83 72




NCC Satellite Simultaneous Nadir Overpasses (SNOs) Prediction Service
